This demonstration page uses our WeatherBlox Daily Observations layout. Learn more.

Left ArrowRight Arrow

31.84235, -102.49876

Hourly Observations for May 14, 2022

Temp ( °F °C ) Dew Point ( °F °C ) Humidity (%) Winds ( mph kmh ) Pressure ( in mb ) Visibility ( mi km ) Precip ( " mm )
12:53 am 00:53 Clear 73 22.8 11 -11.7 9 9 Calm 29.79 1009 10 16 0.00 0.00
1:53 am 01:53 Clear 70 21.1 15 -9.4 12 12 Calm 29.79 1009 10 16 0.00 0.00
2:53 am 02:53 Clear 71 21.7 23 -5 16 16 SSW 6 9 29.78 1009 10 16 0.00 0.00
3:53 am 03:53 Clear 72 22.2 54 12.2 53 53 SE 12 19 29.80 1009 10 16 0.00 0.00
4:53 am 04:53 Clear 70 21.1 60 15.6 71 71 SSE 10 17 29.81 1010 10 16 0.00 0.00
5:53 am 05:53 Clear 70 21.1 61 16.1 73 73 SSE 10 17 29.83 1010 10 16 0.00 0.00
6:53 am 06:53 Sunny 69 20.6 61 16.1 76 76 S 7 11 29.84 1011 10 16 0.00 0.00
7:53 am 07:53 Sunny 71 21.7 61 16.1 71 71 S 14 22 29.86 1011 10 16 0.00 0.00
8:53 am 08:53 Sunny 74 23.3 62 16.7 67 67 S 14 22 29.88 1012 10 16 0.00 0.00
9:53 am 09:53 Sunny 78 25.6 62 16.7 58 58 SSW 16 26 29.89 1012 10 16 0.00 0.00
10:53 am 10:53 Sunny 81 27.2 62 16.7 53 53 SSW 14 22 29.89 1012 10 16 0.00 0.00
11:53 am 11:53 Sunny 86 30 61 16.1 43 43 SSW 14 22 29.90 1012 10 16 0.00 0.00
12:53 pm 12:53 Sunny 89 31.7 56 13.3 33 33 WSW 8 13 29.88 1012 10 16 0.00 0.00
1:53 pm 13:53 Sunny 94 34.4 51 10.6 23 23 S 10 17 29.86 1011 10 16 0.00 0.00
2:53 pm 14:53 Sunny 97 36.1 34 1.1 11 11 undefined N/A 29.83 1010 10 16 0.00 0.00
3:53 pm 15:53 Sunny 98 36.7 32 0 10 10 SW 9 15 29.80 1009 10 16 0.00 0.00
4:53 pm 16:53 Sunny 98 36.7 30 -1.1 9 9 WSW 12 19 29.78 1009 10 16 0.00 0.00
5:53 pm 17:53 Sunny 97 36.1 28 -2.2 9 9 E 7 11 29.77 1008 10 16 0.00 0.00
6:53 pm 18:53 Sunny 97 36.1 25 -3.9 7 7 VRB 7 11 29.76 1008 10 16 0.00 0.00
7:53 pm 19:53 Sunny 96 35.6 25 -3.9 8 8 S 5 7 29.76 1008 10 16 0.00 0.00
8:53 pm 20:53 Clear 91 32.8 26 -3.3 9 9 SSE 3 6 29.77 1008 10 16 0.00 0.00
9:53 pm 21:53 Clear 86 30 29 -1.7 13 13 S 7 11 29.80 1009 10 16 0.00 0.00
10:53 pm 22:53 Clear 84 28.9 31 -0.6 15 15 S 7 11 29.81 1010 10 16 0.00 0.00
11:53 pm 23:53 Clear 84 28.9 46 7.8 27 27 SSW 15 24 29.82 1010 10 16 0.00 0.00

Powered by AerisWeather